Location: Unspecified
(0.0000°N, 0.0000°E)
Time: 06:16:57
(UTC+00:00)

A-11 Canister half - All Passes

Search period start: 22 December 2014 00:00
Search period end: 01 January 2015 00:00
Orbit: 1525 x 1685 km, 47.3° (Epoch: 20 December)

Date Brightness Start Highest point End Pass type
(mag) Time Alt. Az. Time Alt. Az. Time Alt. Az.
22 Dec - 01:29:10 10° N 01:37:06 27° NE 01:44:50 10° E visible
22 Dec - 03:32:22 10° NW 03:42:10 67° SW 03:51:40 10° SSE visible
22 Dec - 05:45:25 10° WSW 05:47:37 11° SW 05:49:48 10° SSW daylight
22 Dec - 14:19:06 10° SSW 14:28:18 56° SE 14:37:45 10° NE daylight
22 Dec - 16:25:08 10° WSW 16:33:14 31° NW 16:41:36 10° N daylight
23 Dec - 01:07:50 10° N 01:15:30 25° NE 01:22:59 10° E visible
23 Dec - 03:10:44 10° NW 03:20:37 71° SW 03:30:12 10° SSE visible
23 Dec - 05:22:34 10° WSW 05:25:59 12° SW 05:29:24 10° SSW visible
23 Dec - 13:57:40 10° SSW 14:06:45 52° SE 14:16:05 10° NE daylight
23 Dec - 16:03:23 10° WSW 16:11:40 33° NW 16:20:12 10° NNE daylight
24 Dec - 00:46:31 10° N 00:53:54 23° NE 01:01:07 10° E visible
24 Dec - 02:49:08 10° NW 02:59:05 76° SW 03:08:43 10° SE visible
24 Dec - 05:00:06 10° WSW 05:04:23 14° SW 05:08:38 10° SSW visible
24 Dec - 13:36:15 10° SSW 13:45:13 49° SE 13:54:24 10° ENE daylight
24 Dec - 15:41:40 10° WSW 15:50:06 36° NW 15:58:48 10° NNE daylight
25 Dec - 00:25:14 10° N 00:32:18 21° NE 00:39:13 10° E visible
25 Dec - 02:27:31 10° NW 02:37:32 81° SW 02:47:13 10° SE visible
25 Dec - 04:37:47 10° WSW 04:42:46 15° SW 04:47:42 10° SSW visible
25 Dec - 13:14:51 10° SSW 13:23:41 45° SE 13:32:43 10° ENE daylight
25 Dec - 15:19:58 10° WSW 15:28:32 38° NW 15:37:23 10° NNE daylight
26 Dec - 00:03:59 10° N 00:10:41 20° NE 00:17:15 10° E night (unlit)
26 Dec - 02:05:56 10° NW 02:15:59 86° SW 02:25:43 10° SE visible
26 Dec - 04:15:36 10° W 04:21:10 16° SW 04:26:41 10° S visible
26 Dec - 12:53:27 10° SSW 13:02:09 42° SE 13:11:00 10° ENE daylight
26 Dec - 14:58:17 10° WSW 15:06:58 41° NW 15:15:57 10° NNE daylight
26 Dec - 23:42:46 10° N 23:49:04 18° NE 23:55:16 10° E night (unlit)
27 Dec - 01:44:21 10° NW 01:54:26 89° NE 02:04:12 10° SE visible
27 Dec - 03:53:29 10° W 03:59:34 18° SW 04:05:35 10° S visible
27 Dec - 12:32:05 10° SSW 12:40:36 39° SE 12:49:17 10° ENE daylight
27 Dec - 14:36:37 10° WSW 14:45:25 44° NW 14:54:31 10° NNE daylight
27 Dec - 23:21:35 10° N 23:27:27 17° NE 23:33:12 10° E night (unlit)
28 Dec - 01:22:47 10° NW 01:32:52 84° NE 01:42:40 10° SE visible
28 Dec - 03:31:26 10° W 03:37:58 20° SW 03:44:26 10° S visible
28 Dec - 12:10:43 10° SSW 12:19:04 36° SE 12:27:33 10° ENE daylight
28 Dec - 14:14:58 10° WSW 14:23:52 47° NW 14:33:04 10° NNE daylight
28 Dec - 23:00:29 10° NNE 23:05:49 15° NE 23:11:04 10° ENE night (unlit)
29 Dec - 01:01:14 10° NW 01:11:19 79° NE 01:21:07 10° SE visible
29 Dec - 03:09:26 10° W 03:16:23 21° SW 03:23:14 10° S visible
29 Dec - 11:49:22 10° SSW 11:57:31 34° SE 12:05:47 10° ENE daylight
29 Dec - 13:53:20 10° WSW 14:02:19 51° NW 14:11:36 10° NNE daylight
29 Dec - 22:39:26 10° NNE 22:44:10 14° NE 22:48:51 10° ENE night (unlit)
30 Dec - 00:39:41 10° NNW 00:49:46 75° NE 00:59:33 10° SE visible
30 Dec - 02:47:28 10° W 02:54:48 23° SW 03:02:01 10° S visible
30 Dec - 11:28:02 10° S 11:35:58 31° SE 11:44:01 10° ENE daylight
30 Dec - 13:31:43 10° SW 13:40:47 54° NW 13:50:08 10° NNE daylight
30 Dec - 22:18:31 10° NNE 22:22:32 13° NE 22:26:30 10° ENE night (unlit)
31 Dec - 00:18:09 10° NNW 00:28:12 70° NE 00:37:59 10° SE visible
31 Dec - 02:25:33 10° W 02:33:13 25° SW 02:40:45 10° S visible
31 Dec - 11:06:43 10° S 11:14:25 29° SE 11:22:13 10° ENE daylight
31 Dec - 13:10:07 10° SW 13:19:15 58° NW 13:28:39 10° NNE daylight
31 Dec - 21:57:49 10° NNE 22:00:53 12° NE 22:03:55 10° ENE night (unlit)
31 Dec - 23:56:38 10° NNW 00:00:00 24° NNW 00:00:00 24° NNW night (unlit)
